CAPE
0 0 0 0 0 0 0 0 1 8 0 0 0 0 0 2 0 0 0 0 66 263 229 314 295 262 291 80 0 0 0 0 0 0 0 0 0 0 0 0 10 12 10 19
0 0 0 0 0 0 0 0 1 4 0 0 0 0 0 0 0 0 0 8 129 272 368 421 418 286 68 0 0 0 0 0 0 0 0 0 0 0 0 0 109 70 72 27
0 0 0 0 0 0 0 0 22 3 0 0 0 0 0 17 2 0 54 174 270 338 391 469 381 125 0 0 0 0 0 0 0 0 0 13 5 18 0 1 0 29 31 38
0 0 0 0 0 0 10 0 0 0 0 2 1 121 73 152 159 42 93 217 291 313 387 487 283 5 0 0 0 0 0 0 0 2 23 71 6 11 7 5 15 31 64 68
3 0 0 0 0 0 0 0 0 0 0 0 13 73 86 167 104 88 160 224 249 344 428 275 17 0 0 0 0 0 0 0 0 3 18 7 22 2 6 19 140 183 132 149
0 0 0 0 0 0 0 0 0 2 29 94 56 101 151 211 39 87 125 125 201 165 71 9 0 0 0 0 1 8 6 6 4 8 17 81 76 87 30 56 47 56 41 59
8 4 0 0 0 0 0 0 75 150 173 183 19 0 32 20 0 0 75 70 97 61 51 35 3 4 18 18 38 13 15 11 18 24 31 43 95 124 179 70 40 82 67 72
27 56 0 0 0 4 37 8 41 58 121 132 11 17 88 0 0 0 0 52 90 62 60 70 31 22 30 62 34 42 32 33 34 33 36 45 55 36 30 74 97 73 82 65
84 88 0 0 0 0 22 31 28 34 17 59 100 59 7 0 0 0 0 0 46 56 61 59 57 76 73 51 54 35 33 41 48 34 63 80 63 59 100 98 88 106 102 40
0 70 31 0 0 0 0 9 12 92 110 100 83 48 91 14 11 15 11 25 28 54 68 85 77 85 104 115 96 202 89 86 21 30 49 62 37 53 97 69 64 89 67 54
10 71 77 0 14 25 48 54 24 20 3 36 30 64 3 0 0 0 0 9 10 25 38 69 49 35 39 57 50 106 119 27 10 19 64 50 33 71 76 49 17 85 19 27
114 184 241 92 0 0 0 0 19 32 23 88 83 49 0 0 0 0 0 3 36 37 55 60 73 82 91 60 60 73 86 32 0 1 20 43 78 71 69 6 46 45 32 28
151 45 133 117 68 1 0 13 1 5 2 3 27 49 0 2 6 5 15 23 46 48 59 63 74 87 48 52 47 67 80 6 2 5 55 59 36 1 44 63 41 36 31 25
0 17 100 136 85 30 33 31 21 28 51 39 50 30 7 25 26 29 42 50 50 49 55 70 66 75 109 105 55 66 42 5 0 26 47 70 58 42 16 20 33 9 15 6
0 4 25 54 36 8 7 9 14 31 36 70 52 28 28 56 29 31 45 40 28 37 46 55 45 23 31 41 39 8 3 3 24 47 19 20 10 0 56 65 51 24 12 8
45 12 10 12 18 33 7 0 0 1 13 16 8 37 36 21 17 31 34 29 47 53 43 28 18 23 20 26 49 23 8 19 24 19 21 6 19 40 79 69 35 55 66 66
64 77 62 47 43 0 1 25 22 16 2 16 46 52 30 39 22 23 45 56 54 61 18 17 19 16 7 10 43 31 11 2 14 1 11 4 44 58 56 51 65 68 89 79
22 53 49 109 56 45 34 0 0 0 0 18 50 40 40 19 25 31 58 34 15 11 13 18 20 19 19 13 27 11 1 7 1 12 33 46 68 64 58 88 96 124 132 100
2 41 79 51 82 42 38 7 9 1 19 27 23 36 21 20 28 69 11 8 9 15 17 14 22 21 27 9 3 3 5 0 21 42 60 64 74 82 71 76 104 135 147 126
0 25 118 43 54 66 99 4 0 0 40 3 7 8 19 40 65 57 10 25 6 6 8 13 7 6 7 1 2 4 0 28 56 72 69 56 77 81 94 112 102 138 147 142
57 67 62 72 89 81 50 0 0 15 48 7 0 14 55 40 35 52 46 36 3 17 10 9 3 5 10 3 2 18 49 58 65 72 76 63 76 80 103 184 174 171 154 168
51 54 58 45 73 51 11 8 14 15 2 0 21 50 26 44 43 40 35 9 2 12 8 6 6 9 1 1 54 59 73 75 63 66 80 68 120 118 66 163 168 173 186 153
27 169 294 106 224 166 10 1 7 7 12 35 54 41 44 32 29 28 12 19 12 6 8 7 10 0 51 46 62 56 69 73 65 49 62 81 72 119 135 125 202 88 113 87
61 0 0 0 0 0 0 0 8 21 38 50 49 39 25 22 23 9 7 13 4 9 9 11 1 12 55 57 36 30 57 51 66 73 56 71 78 148 118 108 87 24 22 42
10 0 0 0 0 0 20 34 30 27 35 33 21 7 16 9 13 13 15 2 5 8 11 1 48 44 29 19 31 27 60 64 73 93 86 138 88 150 148 25 18 37 12 3
0 0 0 22 11 2 51 34 14 4 12 4 4 12 6 7 22 10 5 6 7 11 0 37 22 18 25 38 52 76 80 71 84 74 44 32 70 83 190 39 35 0 0 0
CIN
0 0 0 0 0 0 0 0 0 0 0 0 0 0 0 -94 0 0 0 0 -43 -55 -77 -97 -86 -87 -45 -161 0 0 0 0 0 0 0 0 0 0 0 0 0 0 0 0
0 0 0 0 0 0 0 0 0 -2 0 0 0 0 0 -23 0 0 -1 -15 -37 -41 -54 -50 -43 -37 -109 0 0 0 0 0 0 0 0 0 0 0 0 0 0 0 0 0
0 0 0 0 0 0 0 0 -1 0 0 0 0 0 0 -98 -100 0 -77 -65 -51 -35 -36 -15 -14 -31 0 0 0 0 0 0 0 0 0 -3 -15 -2 0 0 0 0 -1 0
0 0 0 0 0 0 0 0 0 0 0 -1 0 -1 0 -6 -62 -93 -86 -66 -46 -38 -5 0 -1 -17 0 0 0 0 0 0 0 0 -31 -10 0 0 0 0 0 0 0 0
-1 0 0 0 0 0 0 0 0 0 0 -6 -13 0 0 -14 -25 -55 -76 -54 -11 0 0 -1 -14 0 0 0 0 0 0 0 0 0 -25 0 0 0 0 0 0 0 0 -1
0 0 0 0 0 0 0 0 0 -10 -9 0 -1 0 0 0 -17 0 -23 -23 -3 -7 -25 0 0 0 0 0 0 0 0 -1 0 0 0 -2 0 0 0 0 0 0 0 0
0 0 0 0 0 0 0 0 0 0 0 -4 -38 0 -2 -9 0 0 0 -4 -14 -1 0 -1 0 0 0 0 -1 0 0 0 0 0 0 0 0 0 -1 0 0 -1 0 0
0 -2 0 0 0 0 0 -2 0 0 0 0 -26 0 -5 0 0 0 0 0 0 -1 0 0 0 -1 0 0 -1 0 0 0 0 0 0 0 0 0 0 0 0 0 0 0
0 -1 0 0 0 0 -5 0 0 -1 0 0 0 0 -43 0 0 0 0 0 -2 -1 0 0 -1 0 0 -7 -6 -1 0 0 -1 0 0 0 0 0 0 -1 0 0 0 -1
0 -3 -1 0 0 0 0 0 -1 0 0 0 0 -1 -7 -2 -1 0 0 -1 -1 0 -3 -1 -2 -1 0 0 0 -2 -2 -1 0 0 0 0 -1 -1 0 0 0 -1 -1 0
-22 0 0 0 0 0 -3 0 -2 -1 -1 0 0 -1 -23 -16 0 0 0 0 0 -1 0 -1 -2 -1 -1 0 -18 -10 -4 -2 -6 0 0 0 0 0 0 0 -5 0 0 -11
-10 -2 0 -1 0 0 0 0 0 0 0 0 0 -1 0 0 0 0 0 0 0 0 0 0 0 -1 0 0 0 0 0 -9 0 0 0 0 -1 0 0 -8 0 0 0 -9
-15 -3 0 0 -2 -1 0 0 0 0 0 0 0 0 -22 0 0 0 -1 0 -1 0 0 0 0 0 -2 0 -23 0 -2 -3 0 0 0 -4 -5 -17 -1 0 0 0 0 0
0 -15 0 0 0 -1 0 0 0 0 0 0 0 -1 -1 0 0 0 0 -1 0 0 -1 -1 -1 0 0 -5 -4 -1 0 -1 0 0 -1 0 0 0 -3 -2 0 0 0 0
0 0 0 0 -1 0 0 0 0 0 0 0 0 0 0 -1 -1 -1 -1 0 0 0 0 0 0 0 0 -1 0 0 -4 -20 0 0 -1 0 -1 0 0 0 0 -1 -3 -15
-1 0 0 0 0 0 0 0 0 0 0 0 0 0 -11 -12 -2 0 0 0 -1 0 -1 0 0 0 0 0 0 0 -4 -1 0 -5 0 0 -13 0 0 0 0 0 0 0
0 0 0 0 0 0 0 0 0 0 0 0 0 0 0 -1 0 0 0 0 0 0 0 0 0 0 0 0 0 0 0 -1 0 0 0 0 0 0 0 0 0 0 0 0
0 0 0 0 0 0 0 0 0 0 0 0 0 0 0 0 0 0 0 0 0 0 0 0 0 0 0 0 0 0 0 -4 0 -4 0 0 0 0 0 0 0 0 0 0
0 0 0 0 0 0 -1 0 0 0 -2 0 0 0 0 0 0 -3 -1 0 0 0 0 0 0 0 0 0 0 0 0 0 -1 0 0 0 0 0 0 0 0 0 0 0
0 -2 0 0 0 0 0 0 0 0 0 -6 0 0 0 0 0 -2 0 0 -2 0 0 0 0 0 0 0 0 0 0 0 0 0 0 0 0 0 0 0 0 0 0 0
0 0 0 -1 0 0 -3 0 0 0 0 0 0 0 0 -2 -1 0 0 -1 -1 0 0 0 0 0 0 0 0 0 0 0 0 0 0 0 -1 -1 0 0 0 0 0 0
0 0 0 0 0 0 0 0 0 0 0 0 0 0 -4 0 0 0 0 -2 -2 0 0 0 0 0 0 0 0 0 0 0 0 0 0 0 -1 -2 0 0 0 0 0 0
0 -1 0 0 0 0 -1 0 0 0 0 0 0 0 0 0 0 0 0 0 -1 0 0 0 0 0 0 0 0 0 0 0 0 0 0 0 0 0 0 0 0 0 0 0
0 0 0 0 0 0 0 0 0 0 0 0 0 0 0 0 0 -1 0 0 0 0 0 0 0 -4 0 0 0 0 0 0 0 0 0 0 0 0 0 0 0 -9 -4 -1
-2 0 0 0 0 0 0 0 0 0 0 0 0 0 0 0 0 0 0 0 0 0 0 -2 0 0 0 0 0 0 -3 -1 0 0 -2 0 0 -1 0 -8 0 -1 0 0
0 0 0 -22 0 0 0 0 0 0 0 0 0 0 0 0 0 0 0 0 0 0 -2 0 -6 -1 -1 0 0 0 0 0 0 0 0 0 0 0 -1 -17 -2 0 0 0
Wind_Speed
13 12 14 17 15 16 11 11 8 8 6 9 8 9 2 3 9 11 10 12 14 11 12 11 8 7 7 6 5 5 6 8 8 8 10 9 10 10 11 11 12 12 12 14
8 15 5 10 12 7 12 11 11 8 2 8 12 13 8 7 8 7 8 10 12 14 12 12 9 6 4 5 5 5 7 9 9 8 8 8 9 11 12 12 11 13 15 14
14 12 6 6 7 11 12 11 4 6 7 11 16 16 17 10 8 7 7 9 11 12 12 12 10 6 3 5 4 5 7 9 9 11 9 9 10 11 12 13 13 12 15 16
7 8 6 9 9 5 13 8 6 8 11 12 4 13 5 14 12 9 10 10 11 12 14 10 9 6 3 2 2 5 7 8 9 10 10 12 12 13 13 14 13 13 15 16
6 4 8 8 4 3 10 6 8 12 13 16 19 11 11 12 11 10 9 10 11 11 7 8 8 3 1 3 4 4 6 7 9 10 12 12 14 14 14 14 16 15 16 12
6 4 6 10 5 5 10 11 14 16 16 15 20 15 7 12 6 11 11 10 10 8 8 4 3 0 7 6 5 6 7 8 11 12 14 14 15 16 14 15 14 13 13 12
8 11 4 8 12 10 10 13 13 12 12 9 7 6 5 7 6 9 10 11 10 7 7 7 8 10 6 7 6 8 9 11 13 14 15 16 16 16 17 15 15 14 12 12
12 5 6 4 9 12 7 8 10 15 11 14 6 9 8 11 8 9 9 5 11 9 7 8 7 7 10 10 7 10 11 11 13 15 17 16 16 13 12 12 12 11 10 10
14 3 6 1 5 6 3 9 8 10 15 15 14 5 12 10 9 5 5 8 6 4 6 7 8 9 8 8 9 9 10 12 14 17 15 15 14 14 12 12 11 8 10 10
11 11 9 10 4 10 11 10 9 8 11 13 12 14 12 8 7 6 5 4 3 5 7 8 9 8 8 5 9 9 9 10 15 18 17 16 16 13 13 11 13 12 12 11
12 9 6 4 11 10 5 9 5 2 7 12 11 3 8 8 8 9 9 10 10 8 12 11 11 10 11 14 11 10 8 12 15 17 18 17 16 14 11 11 9 11 10 11
8 8 11 3 0 5 8 13 12 9 10 10 8 11 10 6 8 8 10 9 6 9 11 14 14 15 15 16 15 14 12 14 16 19 18 17 12 10 12 9 11 11 11 11
10 6 9 14 6 0 8 3 5 6 7 11 10 5 6 4 7 6 6 9 11 12 15 15 15 15 16 17 13 14 13 14 16 16 14 9 8 8 11 12 10 10 10 9
1 8 14 11 15 1 9 9 7 7 7 12 11 13 4 9 9 11 12 13 15 17 18 17 17 16 15 12 10 11 12 15 14 14 10 12 11 10 9 9 9 7 7 8
5 11 13 16 12 8 15 14 13 13 12 13 13 12 13 12 11 10 12 17 19 19 17 19 20 21 21 20 18 15 12 12 12 12 11 8 8 8 8 8 5 5 7 8
3 9 10 13 15 16 11 14 13 11 10 11 9 9 10 8 8 13 16 19 16 18 21 21 21 21 21 18 14 13 9 10 10 10 8 8 8 9 8 7 8 9 8 8
5 8 10 13 10 9 12 8 6 2 2 5 9 12 11 13 16 17 17 15 18 19 20 20 21 20 17 16 13 12 9 8 7 7 7 7 7 9 8 7 9 6 6 4
10 6 10 9 12 9 4 5 6 7 6 4 4 10 11 15 15 15 14 14 16 18 19 18 16 15 14 12 10 11 9 5 5 6 6 6 9 8 7 8 8 7 8 7
8 10 3 2 6 13 11 3 4 7 10 9 9 10 15 15 14 7 14 16 17 18 16 13 14 16 13 8 10 9 4 4 5 5 7 7 8 10 7 5 6 7 6 6
6 9 5 9 7 7 8 5 5 5 3 9 10 14 15 15 11 12 19 17 17 16 13 13 13 12 11 10 8 2 4 4 7 8 7 8 8 8 9 9 8 7 7 7
7 7 10 9 6 2 7 5 3 5 6 11 14 14 15 11 10 14 16 16 14 11 12 12 10 10 8 5 2 3 3 5 7 6 7 7 6 3 8 9 6 7 8 8
5 4 3 6 9 5 5 2 5 9 11 13 12 13 11 14 15 16 17 14 12 11 11 10 9 6 4 1 3 5 7 7 5 5 6 8 10 9 8 8 7 9 10 10
3 6 4 4 4 3 8 6 6 6 9 11 13 13 13 14 15 16 13 10 9 9 8 7 5 2 4 4 5 5 8 7 6 6 5 8 9 9 9 9 9 7 9 9
4 3 5 4 5 4 4 6 7 9 9 11 11 12 14 14 15 13 11 7 8 7 6 4 3 4 3 4 6 6 8 7 7 6 6 6 5 8 10 9 7 10 11 10
6 1 4 6 4 6 6 8 9 10 9 11 12 13 13 15 13 10 8 7 5 5 3 4 3 5 6 4 5 7 9 8 9 10 9 11 9 9 7 11 10 9 11 10
4 2 2 2 8 6 8 8 9 11 12 12 13 14 14 10 10 10 8 5 3 2 3 3 3 2 4 3 6 6 6 11 13 9 8 7 9 5 7 3 5 10 8 10
Wind_Direction
189 234 228 246 232 272 325 292 271 161 84 282 254 286 138 250 249 251 224 209 196 182 169 165 154 169 136 92 76 50 48 31 6 4 354 345 343 334 329 322 315 319 321 312
234 231 18 348 313 290 258 258 253 85 171 255 260 239 188 228 249 265 224 219 181 186 162 181 168 175 137 109 53 53 34 26 8 360 343 337 328 325 319 307 325 335 314 326
274 38 67 262 227 246 237 266 273 274 157 250 261 256 231 189 226 214 215 206 193 181 193 178 186 186 186 88 51 42 19 12 360 2 331 337 327 317 316 326 321 309 332 320
307 53 250 241 251 279 292 186 313 286 257 272 157 282 216 171 202 200 196 197 187 192 198 177 187 195 144 34 39 20 9 1 358 346 335 331 309 312 325 300 311 319 310 308
69 190 235 259 318 37 307 330 294 288 277 278 266 236 288 149 198 183 186 195 197 190 178 188 202 140 153 247 343 307 358 344 340 338 334 324 316 317 310 312 309 319 289 312
14 340 296 324 1 308 319 280 263 250 251 248 250 249 230 174 218 176 178 200 194 180 198 204 169 194 258 255 289 334 329 346 339 337 327 322 318 317 313 310 307 306 326 315
169 195 144 266 258 200 243 261 264 271 230 275 344 259 300 49 114 329 162 191 180 199 212 219 221 231 238 280 308 324 333 331 339 332 328 328 321 316 297 332 315 313 318 299
286 200 181 123 288 319 300 345 298 306 315 317 166 246 99 57 57 32 12 227 184 179 253 237 291 311 302 313 342 313 329 339 326 330 330 326 320 315 328 318 324 324 322 323
302 310 103 33 285 278 300 251 10 307 278 261 264 131 123 97 82 75 39 355 5 316 254 286 297 293 309 323 302 315 317 309 327 332 326 322 324 337 316 331 327 321 322 323
287 295 194 131 251 239 268 347 300 261 290 285 307 326 56 83 62 120 205 222 297 314 308 278 267 301 325 325 293 291 302 317 344 327 327 326 341 316 326 331 327 320 331 318
291 270 265 187 218 275 211 245 236 298 284 299 298 58 57 56 29 356 333 12 345 335 326 321 352 336 314 315 322 286 329 341 325 334 336 334 324 313 339 329 308 316 315 322
41 307 291 163 287 299 280 288 304 286 285 277 314 276 77 52 19 5 337 348 342 322 310 320 314 306 303 341 360 335 338 345 351 332 331 320 341 344 340 320 316 330 325 319
10 258 275 279 159 54 280 244 294 309 292 271 284 282 136 87 21 358 318 314 327 324 315 318 324 341 344 332 339 326 346 337 337 332 321 359 359 343 312 329 324 335 332 334
271 273 280 281 305 247 270 255 233 275 286 283 281 322 262 24 29 353 344 328 322 331 325 339 339 333 341 360 351 317 330 352 343 334 342 331 338 328 327 313 330 325 319 313
273 266 271 278 296 302 287 284 279 266 260 266 290 309 330 25 349 326 329 333 329 316 349 342 339 335 327 341 341 349 344 345 347 328 344 321 326 305 303 326 327 326 304 299
199 276 274 279 276 266 284 285 281 274 280 288 284 291 23 330 337 329 335 330 344 344 345 339 335 328 339 334 330 336 337 347 340 314 329 324 306 303 318 319 322 306 300 309
267 284 276 282 308 302 275 311 291 333 293 284 299 356 341 354 348 334 339 360 354 342 342 340 343 342 338 334 337 329 353 348 332 322 306 307 300 307 311 307 300 312 328 342
277 264 284 291 298 286 99 69 17 321 291 293 320 349 357 346 335 338 26 0 346 343 350 350 342 336 340 335 330 342 328 2 309 290 288 313 320 319 332 347 354 350 342 350
240 264 268 242 271 255 175 83 38 16 331 42 4 344 338 331 322 118 24 359 350 4 358 346 341 340 332 351 335 325 351 288 280 312 319 350 340 348 20 7 356 3 345 3
215 246 195 262 262 306 153 97 6 333 234 25 349 334 328 332 338 345 341 349 13 2 358 344 340 333 337 337 319 354 260 301 332 345 353 4 342 8 356 346 7 8 4 9
179 218 228 232 247 282 61 32 342 268 29 340 340 324 3 349 345 322 345 1 12 10 347 343 338 334 337 316 301 243 295 337 337 322 11 11 326 5 18 18 0 18 18 16
293 251 239 266 238 233 22 244 358 8 337 330 322 3 346 334 329 339 345 12 1 6 345 346 336 353 338 227 308 351 356 356 356 21 20 9 15 11 10 10 13 26 18 20
256 3 318 341 36 41 31 7 1 345 321 338 348 348 337 331 336 341 4 6 12 351 346 341 353 322 325 359 14 349 36 3 8 42 31 22 28 18 357 40 12 38 26 13
149 27 270 352 73 5 332 340 10 341 359 341 338 345 341 333 345 356 346 16 359 342 341 352 284 294 15 22 28 24 22 8 8 9 15 7 353 27 24 48 35 34 18 5
31 49 342 299 270 328 99 37 7 334 344 347 349 343 344 5 346 334 358 8 337 338 12 259 297 351 34 351 17 23 4 351 359 356 13 340 341 75 59 58 22 51 49 28
126 318 231 21 38 327 23 26 10 345 355 352 347 356 2 358 345 358 332 333 331 46 214 245 317 333 299 339 24 21 357 18 16 5 357 358 1 19 78 75 94 59 84 60